KNUCKPSP

Guest
Details From KNUC - San Clemente Island Nalf
To KPSP - Palm Springs Intl
Flight Number -
Tags generated
Created
Modified
Stats Distance 115 nm / 213 km
Max Altitude 4,300 ft / 1,311 m
Waypoints 3
Social Downloads 0
Likes 0
Share VATSIM

Download

Looking for another format? Having issues loading an existing format? Contact us
Advertisement - Login to hide

Notes

Basic altitude profile: - Ascent Rate: 2000ft/min - Ascent Speed: 235kts - Cruise Altitude: 12000ft - Cruise Speed: 320kts - Descent Rate: 1000ft/min - Descent Speed: 230kts Options: - Use NATs: yes - Use PACOTS: yes - Use low airways: yes - Use high airways: yes

Route

KNUC HEMET KPSP

ID Type Via Altitude Latitude Longitude Leg Dist Tot Dist Heading (true) Name
O KNUC APT - 0 ft / 0 m 33.02274˚ -118.58849˚ - 0 nm - San Clemente Island Nalf
HEMET FIX - 4,300 ft / 1,311 m 33.69049˚ -116.87905˚ 94 nm 94 nm 64° / 65° -
O KPSP APT - 0 ft / 0 m 33.82968˚ -116.50622˚ 20 nm 115 nm 66° / 66° Palm Springs Intl

Altitude Profile

Advertisement - Login to hide

KNUC

Details ICAO KNUC
Name San Clemente Island Nalf
Region United States
Timezone America/Los_Angeles (UTC-7.0)
Stats Elevation 182 ft / 55 m (AMSL)
Location 33.022745° -118.588487°
Runways 1
Magnetic Variation 11.810° E

METAR

KNUC 181356Z AUTO 26006KT 10SM OVC007 17/16 A3001 RMK AO2 SLP161 T01720156

Decode

TAF

Not found

Departure Runways

ID Width Length Bearing (true) Bearing (mag) Surface Threshold Offset Overrun Length
05 200 ft / 61 m 9,290 ft / 2,832 m 67.19° 55.38° Concrete 0 ft / 0 m 0 ft / 0 m
23 200 ft / 61 m 9,290 ft / 2,832 m 247.20° 235.39° Concrete 0 ft / 0 m 0 ft / 0 m

KPSP

Details ICAO KPSP (PSP)
Name Palm Springs Intl
Region United States
Timezone America/Los_Angeles (UTC-7.0)
Stats Elevation 477 ft / 145 m (AMSL)
Location 33.829677° -116.506218°
Runways 2
Magnetic Variation 11.528° E

METAR

KPSP 181353Z 15009KT 10SM CLR 30/22 A2996 RMK AO2 SLP140 T03000217 $

Decode

TAF

TAF AMD KPSP 181216Z 1812/1912 07010KT P6SM VCSH FEW120 OVC250 FM181800 11009KT P6SM SCT090 SCT200 FM190100 11005KT P6SM SCT200

Decode

Destination Runways

ID Width Length Bearing (true) Bearing (mag) Surface Threshold Offset Overrun Length
13L 75 ft / 23 m 4,958 ft / 1,511 m 143.52° 131.99° Asphalt 0 ft / 0 m 151 ft / 46 m
13R 151 ft / 46 m 10,012 ft / 3,052 m 143.52° 131.99° Asphalt 2,999 ft / 914 m 200 ft / 61 m
31L 151 ft / 46 m 10,012 ft / 3,052 m 323.53° 312.00° Asphalt 1,499 ft / 457 m 200 ft / 61 m
31R 75 ft / 23 m 4,958 ft / 1,511 m 323.53° 312.00° Asphalt 0 ft / 0 m 151 ft / 46 m

Popular Alternatives